PROGRESS-MS 13 (44833 NORAD) Tracking and Keplerian Element Data

This shows tracking and keplerian element data for the satellite.

Feedback or suggestion? Click here.




ElementValue
Catalog44833
NamePROGRESS-MS 13
Epoch Orbit20850
Epoch Day17.51853875
Epoch Year2020
RAAN18.9169
Inclination51.6454
Eccentricity0.0004969
Argument of Perigee140.0843
Mean Anonmoly2.9937
Mean Motion15.49570714
Decay Rate1.029E-05
L11 44833U 19085A 20017.51853875 .00001029 00000-0 26379-4 0 9990
L22 44833 51.6454 18.9169 0004969 140.0843 2.9937 15.49570714208509

Live tracking and technical data element details for PROGRESS-MS 13 (NORAD 44833). PROGRESS-MS 13 can be tracked NOW for your location showing map with azimuth and elevation plus other details from your city location.

Track the satellite on the map from your city or location and see movement details for azimuth, elevation, latitude, longitude, range, height, and movement on the map or in text.







IsCatalogInMostPopularTable: catalog: 44833, numindb: 8
Update: records affected: 1



GetName: 44833 PROGRESS-MS 13

Hit Count: updated at: Mon, 20 Jan 2020 03:49:16 GMT